Time,TemperatureF,DewpointF,PressureIn,WindDirection,WindDirectionDegrees,WindSpeedMPH,WindSpeedGustMPH,Humidity,HourlyPrecipIn,Conditions,Clouds,dailyrainin,SolarRadiationWatts/m^2,SoftwareType,DateUTC
2013-02-25 00:02:00,9.0,7.0,-100.00,WSW,249,0.0,4.0,91,-99.99,,,0.00,0.000000,,2013-02-25 06:02:00,
2013-02-25 00:11:00,16.0,14.0,-100.00,WNW,298,0.0,4.0,92,0.00,,,0.00,0.000000,,2013-02-25 06:11:00,
2013-02-25 00:32:00,16.0,14.0,-100.00,WNW,298,0.0,4.0,92,0.00,,,0.00,0.000000,,2013-02-25 06:32:00,
2013-02-25 00:42:00,16.0,14.0,-100.00,WNW,298,0.0,4.0,92,0.00,,,0.00,0.000000,,2013-02-25 06:42:00,
2013-02-25 00:52:00,16.0,14.0,-100.00,WNW,298,0.0,4.0,92,0.00,,,0.00,0.000000,,2013-02-25 06:52:00,
2013-02-25 01:01:00,16.0,14.0,-100.00,WNW,298,0.0,4.0,92,0.00,,,0.00,0.000000,,2013-02-25 07:01:00,
2013-02-25 01:11:00,16.0,14.0,-100.00,NNE,18,0.0,4.0,90,0.00,,,0.00,0.000000,,2013-02-25 07:11:00,
2013-02-25 01:42:00,16.0,14.0,-100.00,NNE,18,0.0,4.0,90,0.00,,,0.00,0.000000,,2013-02-25 07:42:00,
2013-02-25 01:52:00,16.0,14.0,-100.00,NNE,18,0.0,4.0,90,0.00,,,0.00,0.000000,,2013-02-25 07:52:00,
2013-02-25 02:01:00,16.0,14.0,-100.00,NNE,18,0.0,4.0,90,0.00,,,0.00,0.000000,,2013-02-25 08:01:00,
2013-02-25 02:11:00,16.0,14.0,-100.00,WNW,288,4.0,5.0,90,0.00,,,0.00,0.000000,,2013-02-25 08:11:00,
2013-02-25 02:32:00,16.0,14.0,-100.00,WNW,288,4.0,5.0,90,0.00,,,0.00,0.000000,,2013-02-25 08:32:00,
2013-02-25 02:42:00,16.0,14.0,-100.00,WNW,288,4.0,5.0,90,0.00,,,0.00,0.000000,,2013-02-25 08:42:00,
2013-02-25 02:52:00,16.0,14.0,-100.00,WNW,288,4.0,5.0,90,0.00,,,0.00,0.000000,,2013-02-25 08:52:00,
2013-02-25 03:01:00,16.0,14.0,-100.00,WNW,288,4.0,5.0,90,0.00,,,0.00,0.000000,,2013-02-25 09:01:00,
2013-02-25 03:11:00,17.0,15.0,-100.00,SE,132,2.0,4.0,90,0.00,,,0.00,0.000000,,2013-02-25 09:11:00,
2013-02-25 03:32:00,17.0,15.0,-100.00,SE,132,2.0,4.0,90,0.00,,,0.00,0.000000,,2013-02-25 09:32:00,
2013-02-25 03:42:00,17.0,15.0,-100.00,SE,132,2.0,4.0,90,0.00,,,0.00,0.000000,,2013-02-25 09:42:00,
2013-02-25 03:52:00,17.0,15.0,-100.00,SE,132,2.0,4.0,90,0.00,,,0.00,0.000000,,2013-02-25 09:52:00,
2013-02-25 04:01:00,17.0,15.0,-100.00,SE,132,2.0,4.0,90,0.00,,,0.00,0.000000,,2013-02-25 10:01:00,
2013-02-25 04:11:00,18.0,16.0,-100.00,ESE,118,0.0,0.0,90,0.00,,,0.00,0.000000,,2013-02-25 10:11:00,
2013-02-25 04:32:00,18.0,16.0,-100.00,ESE,118,0.0,0.0,90,0.00,,,0.00,0.000000,,2013-02-25 10:32:00,
2013-02-25 04:42:00,18.0,16.0,-100.00,ESE,118,0.0,0.0,90,0.00,,,0.00,0.000000,,2013-02-25 10:42:00,
2013-02-25 04:52:00,18.0,16.0,-100.00,ESE,118,0.0,0.0,90,0.00,,,0.00,0.000000,,2013-02-25 10:52:00,
2013-02-25 05:01:00,18.0,16.0,-100.00,ESE,118,0.0,0.0,90,0.00,,,0.00,0.000000,,2013-02-25 11:01:00,
2013-02-25 05:11:00,18.0,15.0,-100.00,ESE,116,1.0,4.0,89,0.00,,,0.00,0.000000,,2013-02-25 11:11:00,
2013-02-25 05:32:00,18.0,15.0,-100.00,ESE,116,1.0,4.0,89,0.00,,,0.00,0.000000,,2013-02-25 11:32:00,
2013-02-25 05:42:00,18.0,15.0,-100.00,ESE,116,1.0,4.0,89,0.00,,,0.00,0.000000,,2013-02-25 11:42:00,
2013-02-25 05:52:00,18.0,15.0,-100.00,ESE,116,1.0,4.0,89,0.00,,,0.00,0.000000,,2013-02-25 11:52:00,
2013-02-25 06:02:00,18.0,15.0,-100.00,ESE,116,1.0,4.0,89,0.00,,,0.00,0.000000,,2013-02-25 12:02:00,
2013-02-25 06:11:00,19.0,16.0,-100.00,South,175,0.0,0.0,89,0.00,,,0.00,0.000000,,2013-02-25 12:11:00,
2013-02-25 06:32:00,19.0,16.0,-100.00,South,175,0.0,0.0,89,0.00,,,0.00,0.000000,,2013-02-25 12:32:00,
2013-02-25 06:42:00,19.0,16.0,-100.00,South,175,0.0,0.0,89,0.00,,,0.00,0.000000,,2013-02-25 12:42:00,
2013-02-25 06:55:00,19.0,16.0,-100.00,South,175,0.0,0.0,89,0.00,,,0.00,0.000000,,2013-02-25 12:55:00,
2013-02-25 07:02:00,19.0,16.0,-100.00,South,175,0.0,0.0,89,0.00,,,0.00,0.000000,,2013-02-25 13:02:00,
2013-02-25 07:11:00,19.0,16.0,-100.00,SSE,163,3.0,4.0,88,0.00,,,0.00,1.000000,,2013-02-25 13:11:00,
2013-02-25 07:32:00,19.0,16.0,-100.00,SSE,163,3.0,4.0,88,0.00,,,0.00,1.000000,,2013-02-25 13:32:00,
2013-02-25 07:42:00,19.0,16.0,-100.00,SSE,163,3.0,4.0,88,0.00,,,0.00,1.000000,,2013-02-25 13:42:00,
2013-02-25 07:52:00,19.0,16.0,-100.00,SSE,163,3.0,4.0,88,0.00,,,0.00,1.000000,,2013-02-25 13:52:00,
2013-02-25 08:03:00,19.0,16.0,-100.00,SSE,163,3.0,4.0,88,0.00,,,0.00,1.000000,,2013-02-25 14:03:00,
2013-02-25 08:11:00,21.0,17.0,-100.00,West,279,1.0,5.0,84,0.00,,,-99.99,36.000000,,2013-02-25 14:11:00,
2013-02-25 08:32:00,21.0,17.0,-100.00,West,279,1.0,5.0,84,0.00,,,-99.99,36.000000,,2013-02-25 14:32:00,
2013-02-25 08:42:00,21.0,17.0,-100.00,West,279,1.0,5.0,84,0.00,,,-99.99,36.000000,,2013-02-25 14:42:00,
2013-02-25 08:52:00,21.0,17.0,-100.00,West,279,1.0,5.0,84,0.00,,,-99.99,36.000000,,2013-02-25 14:52:00,
2013-02-25 09:02:00,21.0,17.0,-100.00,West,279,1.0,5.0,84,0.00,,,-99.99,36.000000,,2013-02-25 15:02:00,
2013-02-25 09:11:00,23.0,19.0,-100.00,WNW,292,3.0,5.0,84,0.00,,,0.00,123.000000,,2013-02-25 15:11:00,
2013-02-25 09:32:00,23.0,19.0,-100.00,WNW,292,3.0,5.0,84,0.00,,,0.00,123.000000,,2013-02-25 15:32:00,
2013-02-25 09:42:00,23.0,19.0,-100.00,WNW,292,3.0,5.0,84,0.00,,,0.00,123.000000,,2013-02-25 15:42:00,
2013-02-25 09:52:00,23.0,19.0,-100.00,WNW,292,3.0,5.0,84,0.00,,,0.00,123.000000,,2013-02-25 15:52:00,
2013-02-25 10:02:00,23.0,19.0,-100.00,WNW,292,3.0,5.0,84,0.00,,,0.00,123.000000,,2013-02-25 16:02:00,
2013-02-25 10:11:00,29.0,21.0,-100.00,WNW,295,1.0,4.0,73,0.00,,,0.00,253.000000,,2013-02-25 16:11:00,
2013-02-25 10:32:00,29.0,21.0,-100.00,WNW,295,1.0,4.0,73,0.00,,,0.00,253.000000,,2013-02-25 16:32:00,
2013-02-25 10:42:00,29.0,21.0,-100.00,WNW,295,1.0,4.0,73,0.00,,,0.00,253.000000,,2013-02-25 16:42:00,
2013-02-25 10:52:00,29.0,21.0,-100.00,WNW,295,1.0,4.0,73,0.00,,,0.00,253.000000,,2013-02-25 16:52:00,
2013-02-25 11:01:00,29.0,21.0,-100.00,WNW,295,1.0,4.0,73,0.00,,,0.00,253.000000,,2013-02-25 17:01:00,
2013-02-25 11:11:00,29.0,22.0,-100.00,South,174,4.0,7.0,74,0.00,,,0.00,404.000000,,2013-02-25 17:11:00,
2013-02-25 11:32:00,29.0,22.0,-100.00,South,174,4.0,7.0,74,0.00,,,0.00,404.000000,,2013-02-25 17:32:00,
2013-02-25 11:42:00,29.0,22.0,-100.00,South,174,4.0,7.0,74,0.00,,,0.00,404.000000,,2013-02-25 17:42:00,
2013-02-25 11:52:00,29.0,22.0,-100.00,South,174,4.0,7.0,74,0.00,,,0.00,404.000000,,2013-02-25 17:52:00,
2013-02-25 12:01:00,29.0,22.0,-100.00,South,174,4.0,7.0,74,0.00,,,0.00,404.000000,,2013-02-25 18:01:00,
2013-02-25 12:11:00,29.0,21.0,-100.00,South,182,5.0,7.0,72,0.00,,,0.00,490.000000,,2013-02-25 18:11:00,
2013-02-25 12:33:00,29.0,21.0,-100.00,South,182,5.0,7.0,72,0.00,,,0.00,490.000000,,2013-02-25 18:33:00,
2013-02-25 12:42:00,29.0,21.0,-100.00,South,182,5.0,7.0,72,0.00,,,0.00,490.000000,,2013-02-25 18:42:00,
2013-02-25 12:52:00,29.0,21.0,-100.00,South,182,5.0,7.0,72,0.00,,,0.00,490.000000,,2013-02-25 18:52:00,
2013-02-25 13:01:00,29.0,21.0,-100.00,South,182,5.0,7.0,72,0.00,,,0.00,490.000000,,2013-02-25 19:01:00,
2013-02-25 13:11:00,30.0,22.0,-100.00,West,276,4.0,7.0,72,0.00,,,0.00,503.000000,,2013-02-25 19:11:00,
2013-02-25 13:42:00,30.0,22.0,-100.00,West,276,4.0,7.0,72,0.00,,,0.00,503.000000,,2013-02-25 19:42:00,
2013-02-25 13:52:00,30.0,22.0,-100.00,West,276,4.0,7.0,72,0.00,,,0.00,503.000000,,2013-02-25 19:52:00,
2013-02-25 14:01:00,30.0,22.0,-100.00,West,276,4.0,7.0,72,0.00,,,0.00,503.000000,,2013-02-25 20:01:00,
2013-02-25 14:11:00,31.0,23.0,-100.00,West,270,3.0,9.0,73,0.00,,,0.00,429.000000,,2013-02-25 20:11:00,
2013-02-25 14:32:00,31.0,23.0,-100.00,West,270,3.0,9.0,73,0.00,,,0.00,429.000000,,2013-02-25 20:32:00,
2013-02-25 14:42:00,31.0,23.0,-100.00,West,270,3.0,9.0,73,0.00,,,0.00,429.000000,,2013-02-25 20:42:00,
2013-02-25 14:52:00,31.0,23.0,-100.00,West,270,3.0,9.0,73,0.00,,,0.00,429.000000,,2013-02-25 20:52:00,
2013-02-25 15:01:00,31.0,23.0,-100.00,West,270,3.0,9.0,73,0.00,,,0.00,429.000000,,2013-02-25 21:01:00,
2013-02-25 15:11:00,28.0,23.0,-100.00,South,171,6.0,8.0,81,0.00,,,0.00,344.000000,,2013-02-25 21:11:00,
2013-02-25 15:32:00,28.0,23.0,-100.00,South,171,6.0,8.0,81,0.00,,,0.00,344.000000,,2013-02-25 21:32:00,
2013-02-25 15:42:00,28.0,23.0,-100.00,South,171,6.0,8.0,81,0.00,,,0.00,344.000000,,2013-02-25 21:42:00,
2013-02-25 15:52:00,28.0,23.0,-100.00,South,171,6.0,8.0,81,0.00,,,0.00,344.000000,,2013-02-25 21:52:00,
2013-02-25 16:01:00,28.0,23.0,-100.00,South,171,6.0,8.0,81,0.00,,,0.00,344.000000,,2013-02-25 22:01:00,
2013-02-25 16:11:00,28.0,21.0,-100.00,WSW,245,3.0,8.0,76,0.00,,,0.00,267.000000,,2013-02-25 22:11:00,
2013-02-25 16:32:00,28.0,21.0,-100.00,WSW,245,3.0,8.0,76,0.00,,,0.00,267.000000,,2013-02-25 22:32:00,
2013-02-25 16:42:00,28.0,21.0,-100.00,WSW,245,3.0,8.0,76,0.00,,,0.00,267.000000,,2013-02-25 22:42:00,
2013-02-25 16:52:00,28.0,21.0,-100.00,WSW,245,3.0,8.0,76,0.00,,,0.00,267.000000,,2013-02-25 22:52:00,
2013-02-25 17:01:00,28.0,21.0,-100.00,WSW,245,3.0,8.0,76,0.00,,,0.00,267.000000,,2013-02-25 23:01:00,
2013-02-25 17:11:00,23.0,19.0,-100.00,NW,312,6.0,8.0,84,0.00,,,0.00,145.000000,,2013-02-25 23:11:00,
2013-02-25 17:32:00,23.0,19.0,-100.00,NW,312,6.0,8.0,84,0.00,,,0.00,145.000000,,2013-02-25 23:32:00,
2013-02-25 17:42:00,23.0,19.0,-100.00,NW,312,6.0,8.0,84,0.00,,,0.00,145.000000,,2013-02-25 23:42:00,
2013-02-25 17:52:00,23.0,19.0,-100.00,NW,312,6.0,8.0,84,0.00,,,0.00,145.000000,,2013-02-25 23:52:00,
2013-02-25 18:01:00,23.0,19.0,-100.00,NW,312,6.0,8.0,84,0.00,,,0.00,145.000000,,2013-02-26 00:01:00,
2013-02-25 18:11:00,19.0,16.0,-100.00,WSW,251,3.0,6.0,89,0.00,,,0.00,31.000000,,2013-02-26 00:11:00,
2013-02-25 18:32:00,19.0,16.0,-100.00,WSW,251,3.0,6.0,89,0.00,,,0.00,31.000000,,2013-02-26 00:32:00,
2013-02-25 19:02:00,19.0,16.0,-100.00,WSW,251,3.0,6.0,89,0.00,,,0.00,31.000000,,2013-02-26 01:02:00,
2013-02-25 19:32:00,13.0,11.0,-100.00,West,276,3.0,6.0,93,0.00,,,0.00,0.000000,,2013-02-26 01:32:00,
2013-02-25 20:11:00,17.0,16.0,-100.00,NW,322,5.0,7.0,97,-99.99,,,0.00,0.000000,,2013-02-26 02:11:00,
2013-02-25 20:32:00,17.0,16.0,-100.00,NW,322,5.0,7.0,97,-99.99,,,0.00,0.000000,,2013-02-26 02:32:00,
2013-02-25 20:42:00,17.0,16.0,-100.00,NW,322,5.0,7.0,97,-99.99,,,0.00,0.000000,,2013-02-26 02:42:00,
2013-02-25 20:52:00,17.0,16.0,-100.00,NW,322,5.0,7.0,97,-99.99,,,0.00,0.000000,,2013-02-26 02:52:00,
2013-02-25 21:02:00,17.0,16.0,-100.00,NW,322,5.0,7.0,97,-99.99,,,0.00,0.000000,,2013-02-26 03:02:00,
2013-02-25 21:11:00,19.0,18.0,-100.00,NW,320,4.0,6.0,97,0.00,,,0.00,0.000000,,2013-02-26 03:11:00,
2013-02-25 21:32:00,19.0,18.0,-100.00,NW,320,4.0,6.0,97,0.00,,,0.00,0.000000,,2013-02-26 03:32:00,
2013-02-25 21:42:00,19.0,18.0,-100.00,NW,320,4.0,6.0,97,0.00,,,0.00,0.000000,,2013-02-26 03:42:00,
2013-02-25 21:52:00,19.0,18.0,-100.00,NW,320,4.0,6.0,97,0.00,,,0.00,0.000000,,2013-02-26 03:52:00,
2013-02-25 22:01:00,19.0,18.0,-100.00,NW,320,4.0,6.0,97,0.00,,,0.00,0.000000,,2013-02-26 04:01:00,
2013-02-25 22:11:00,19.0,18.0,-100.00,NNW,348,4.0,6.0,97,0.00,,,0.00,0.000000,,2013-02-26 04:11:00,
2013-02-25 22:42:00,19.0,18.0,-100.00,NNW,348,4.0,6.0,97,0.00,,,0.00,0.000000,,2013-02-26 04:42:00,
2013-02-25 22:52:00,19.0,18.0,-100.00,NNW,348,4.0,6.0,97,0.00,,,0.00,0.000000,,2013-02-26 04:52:00,
2013-02-25 23:01:00,19.0,18.0,-100.00,NNW,348,4.0,6.0,97,0.00,,,0.00,0.000000,,2013-02-26 05:01:00,
2013-02-25 23:11:00,18.0,17.0,-100.00,NNW,340,3.0,6.0,96,0.00,,,0.00,0.000000,,2013-02-26 05:11:00,
2013-02-25 23:32:00,18.0,17.0,-100.00,NNW,340,3.0,6.0,96,0.00,,,0.00,0.000000,,2013-02-26 05:32:00,
2013-02-25 23:43:00,18.0,17.0,-100.00,NNW,340,3.0,6.0,96,0.00,,,0.00,0.000000,,2013-02-26 05:43:00,
2013-02-25 23:52:00,18.0,17.0,-100.00,NNW,340,3.0,6.0,96,0.00,,,0.00,0.000000,,2013-02-26 05:52:00,